DW8462 Weather Reports


time (UTC)temp
F
wind
direction
speed
knots
gust
knots
rain 1hr
in
rain 24hr
in
rain mn
in
humidity
%
barometer
mb
20260906113008 67 56 0.0 0.0 0.00 0.00 0.00 95 1016.3
20260906111505 67 54 0.0 0.0 0.00 0.00 0.00 95 1016.0
20260906110005 67 56 0.0 0.0 0.00 0.00 0.00 95 1015.8
20260906104503 67 56 0.0 0.0 0.00 0.00 0.00 94 1015.7
20260906103100 67 56 0.0 0.0 0.00 0.00 0.00 94 1015.6
20260906101557 68 360 0.0 0.0 0.00 0.00 0.00 94 1015.5
20260906094636 69 55 0.0 0.0 0.00 0.00 0.00 93 1015.2
20260906093100 69 360 0.0 0.0 0.00 0.00 0.00 93 1015.2
20260906091547 70 360 0.0 0.0 0.00 0.00 0.00 93 1015.1
20260906090045 71 360 0.0 0.0 0.00 0.00 0.00 93 1015.0
20260906084544 71 360 0.0 0.0 0.00 0.00 0.00 93 1015.1
20260906083013 71 360 0.0 0.0 0.00 0.00 0.00 93 1015.1
20260906081534 71 360 0.0 0.0 0.00 0.00 0.00 93 1015.2
20260906080010 71 360 0.0 0.0 0.00 0.00 0.00 92 1015.1
20260906074509 72 360 0.0 0.0 0.00 0.00 0.00 93 1015.1
20260906073008 72 360 0.0 0.0 0.00 0.00 0.00 93 1015.3
20260906071507 72 360 0.0 0.0 0.00 0.00 0.00 93 1015.2
20260906070004 72 360 0.0 0.0 0.00 0.00 0.00 94 1015.2
20260906064505 72 360 0.0 0.0 0.00 0.00 0.00 94 1015.2
20260906063007 72 360 0.0 0.0 0.00 0.00 0.00 95 1015.3
20260906061506 72 360 0.0 0.0 0.00 0.00 0.00 95 1015.3
20260906060100 72 360 0.0 0.0 0.00 0.00 0.00 95 1015.2
20260906054557 72 360 0.0 0.0 0.00 0.00 0.00 95 1015.0
20260906053055 71 5 0.0 0.0 0.00 0.00 0.00 95 1014.8
20260906051555 71 360 0.0 0.0 0.00 0.00 0.00 94 1014.8
20260906050022 71 360 0.0 0.0 0.00 0.00 0.00 94 1014.5
20260906044526 71 360 0.0 0.0 0.00 0.00 0.00 94 1014.4
20260906043049 71 360 0.0 0.0 0.00 0.00 0.00 93 1014.3
20260906041550 70 360 0.0 0.0 0.00 0.00 0.00 93 1014.2
20260906040048 70 22 0.0 0.0 0.00 0.00 0.00 92 1014.2
20260906034553 71 360 0.0 0.0 0.00 0.00 0.00 90 1014.1
20260906033040 72 28 0.0 0.0 0.00 0.00 0.00 90 1014.1
20260906031548 72 360 0.0 0.0 0.00 0.00 0.00 89 1014.2
20260906030035 72 360 0.0 0.0 0.00 0.00 0.00 89 1014.0
20260906024535 72 360 0.0 0.0 0.00 0.00 0.00 89 1014.2
20260906023034 73 360 0.0 0.0 0.00 0.00 0.00 88 1014.2
20260906021533 73 360 0.0 0.0 0.00 0.00 0.00 87 1014.2
20260906020048 73 360 0.0 0.0 0.00 0.00 0.00 87 1014.2
20260906014533 73 38 0.0 0.0 0.00 0.00 0.00 88 1014.0
20260906013027 73 360 0.0 0.0 0.00 0.00 0.00 90 1013.9
20260906011526 72 360 0.0 0.0 0.00 0.00 0.00 90 1013.8
20260906010023 73 360 0.0 0.0 0.00 0.00 0.00 90 1013.7
20260906004519 73 360 0.0 0.0 0.00 0.00 0.00 89 1013.3
20260906003023 74 360 0.0 0.0 0.00 0.00 0.00 88 1013.0
20260906001515 75 360 0.0 0.0 0.00 0.00 0.00 87 1013.0
20260906000014 76 360 0.0 0.0 0.00 0.00 0.00 86 1013.1
20260905234545 77 360 0.0 0.0 0.00 0.00 0.00 84 1013.0
20260905233045 78 360 0.0 0.0 0.00 0.00 0.00 82 1012.9
20260905231537 79 360 0.0 0.0 0.00 0.00 0.00 83 1012.5
20260905230037 79 360 0.0 0.0 0.00 0.00 0.00 81 1012.5
20260905224536 80 360 0.0 0.0 0.00 0.00 0.00 80 1012.3
20260905223040 81 360 0.0 0.0 0.00 0.00 0.00 79 1012.2
20260905221543 82 360 0.0 0.0 0.00 0.00 0.00 78 1012.2
20260905220034 83 360 0.0 0.0 0.00 0.00 0.00 77 1012.0
20260905214532 84 360 0.0 0.0 0.00 0.00 0.00 75 1011.9
20260905213034 84 360 0.0 0.0 0.00 0.00 0.00 74 1011.8
20260905211541 85 360 0.0 0.0 0.00 0.00 0.00 72 1011.7
20260905210029 86 360 0.0 0.0 0.00 0.00 0.00 73 1011.7
20260905204529 86 360 0.0 0.0 0.00 0.00 0.00 72 1011.8
20260905203032 87 360 0.0 0.0 0.00 0.00 0.00 72 1011.7
20260905201525 88 360 0.0 0.0 0.00 0.00 0.00 70 1011.7
20260905200035 89 5 0.0 0.0 0.00 0.00 0.00 71 1011.7
20260905194524 89 360 0.0 0.0 0.00 0.00 0.00 70 1011.7
20260905193024 90 360 0.0 0.0 0.00 0.00 0.00 70 1011.8
20260905191521 90 9 0.0 0.0 0.00 0.00 0.00 71 1011.8
20260905190020 90 360 0.0 0.0 0.00 0.00 0.00 71 1011.8
20260905184521 89 5 0.0 0.0 0.00 0.00 0.00 74 1012.0
20260905183019 89 360 0.0 0.0 0.00 0.00 0.00 74 1012.1
20260905181517 89 360 0.0 0.0 0.00 0.00 0.00 74 1012.1
20260905180016 90 360 0.0 0.0 0.00 0.00 0.00 74 1012.0
20260905174515 91 360 0.0 0.0 0.00 0.00 0.00 75 1012.0
20260905173014 90 360 0.0 0.0 0.00 0.00 0.00 74 1012.1
20260905171557 90 23 0.0 0.0 0.00 0.00 0.00 74 1012.1
20260905170043 89 9 0.0 0.0 0.00 0.00 0.00 75 1012.2
20260905164541 89 360 0.0 0.0 0.00 0.00 0.00 75 1012.4
20260905163037 89 5 0.0 0.0 0.00 0.00 0.00 74 1012.4
20260905161540 88 349 0.0 0.0 0.00 0.00 0.00 77 1012.4
20260905160044 88 360 0.0 0.0 0.00 0.00 0.00 79 1012.3
20260905154546 87 26 0.0 0.0 0.00 0.00 0.00 80 1012.4
20260905153029 87 23 0.0 0.0 0.00 0.00 0.00 80 1012.3
20260905151530 87 355 0.0 0.0 0.00 0.00 0.00 79 1012.2
20260905150025 87 360 0.0 0.0 0.00 0.00 0.00 82 1012.2
20260905144533 86 346 0.0 0.0 0.00 0.00 0.00 81 1012.0
20260905143017 85 17 0.0 0.0 0.00 0.00 0.00 82 1011.9
20260905141515 84 24 0.0 0.0 0.00 0.00 0.00 84 1011.8
20260905140010 82 27 0.0 0.0 0.00 0.00 0.00 87 1012.1
20260905134507 81 27 0.0 0.0 0.00 0.00 0.00 90 1012.3
20260905133101 80 30 0.0 0.0 0.00 0.00 0.00 94 1012.1
20260905131602 78 28 0.0 0.0 0.00 0.00 0.00 95 1011.9
20260905130058 77 28 0.0 0.0 0.00 0.00 0.00 95 1011.8
20260905124600 76 28 0.0 0.0 0.00 0.00 0.00 95 1012.0
20260905124556 76 28 0.0 0.0 0.00 0.00 0.00 95 1011.9
20260905123052 76 28 0.0 0.0 0.00 0.00 0.00 95 1011.7
20260905121552 75 28 0.0 0.0 0.00 0.00 0.00 95 1011.7
20260905120051 75 28 0.0 0.0 0.00 0.00 0.00 95 1011.6
20260905114607 74 28 0.0 0.0 0.00 0.00 0.00 94 1011.4